Weather History for Beckley, WV

Change the Weather History Date:

Wednesday, January 29, 2014

  Actual Average Record
Temperature  
Mean Temperature 4 °F 32 °F  
Max Temperature 16 °F 40 °F 73 °F (1914)
Min Temperature -8 °F 23 °F -8 °F (1977)
Degree Days  
Heating Degree Days 61 33  
Month to date heating degree days 1158 984  
Since 1 July heating degree days 3196 3077  
Cooling Degree Days 0 0  
Month to date cooling degree days 0 0  
Year to date cooling degree days 0 0  
Moisture  
Dew Point -7 °F    
Average Humidity 60    
Maximum Humidity 87    
Minimum Humidity 33    
Precipitation  
Precipitation 0.00 in 0.09 in 1.04 in (1990)
Month to date precipitation 4.69 2.63  
Year to date precipitation 4.69 2.63  
Snow  
Snow 0.00 in - - ()
Month to date snowfall 19.6  
Since 1 September snowfall 32.9  
Snow Depth 5.00 in    
Sea Level Pressure  
Sea Level Pressure 30.35 in    
Wind  
Wind Speed 5 mph (WNW)    
Max Wind Speed 12 mph    
Max Gust Speed 14 mph    
Visibility 9 miles    
Events Snow    
T = Trace of Precipitation, MM = Missing Value Source: NWS Daily Summary

Daily Weather History Graph

Daily Weather History Graph

Search for Another Location

Airport:

Trip Planner

Search our weather history database for the weather conditions in past years. The results will help you decide how hot, cold, wet, or windy it might be!

Date:

Astronomy

Jan. 29, 2014 Rise Set
Actual Time 7:30 AM EST 5:44 PM EST
Civil Twilight 7:03 AM EST 6:12 PM EST
Nautical Twilight 6:31 AM EST 6:44 PM EST
Astronomical Twilight 6:00 AM EST 7:15 PM EST
Moon 6:06 AM EST (1/29) 4:42 PM EST (1/29)
Length of Visible Light 11h 09m
Length of Day
10h 13m
Waning Crescent, 2% of the Moon is Illuminated
Jan 29
Waning Crescent
Jan 30
New
Feb 6
First Quarter
Feb 14
Full
Feb 22
Last Quarter

Hourly Weather History & Observations

Time (EST) Temp. Windchill Dew Point Humidity Pressure Visibility Wind Dir Wind Speed Gust Speed Precip Events Conditions
12:44 AM 3.0 °F -8.0 °F -2.0 °F 80% 30.10 in 5.0 mi NNW 5.8 mph - N/A   Haze
12:51 AM 3.0 °F -8.0 °F -2.0 °F 80% 30.30 in 5.0 mi NNW 5.8 mph - N/A   Haze
1:51 AM 1.9 °F -7.6 °F -2.9 °F 80% 30.31 in 10.0 mi NW 4.6 mph - N/A   Overcast
2:38 AM 1.0 °F -6.7 °F -2.9 °F 83% 30.10 in 10.0 mi NW 3.5 mph - N/A   Scattered Clouds
2:51 AM 1.0 °F -10.3 °F -4.0 °F 79% 30.32 in 10.0 mi NW 5.8 mph - N/A   Partly Cloudy
3:12 AM 1.0 °F -8.7 °F -2.9 °F 83% 30.12 in 2.5 mi NNW 4.6 mph - 0.00 in Snow Light Snow
3:35 AM -0.0 °F -9.9 °F -4.0 °F 83% 30.12 in 4.0 mi NW 4.6 mph - 0.00 in   Overcast
3:51 AM 1.0 °F -8.7 °F -4.0 °F 79% 30.34 in 3.0 mi WNW 4.6 mph - 0.00 in   Haze
4:23 AM -0.9 °F -14.1 °F -6.0 °F 79% 30.13 in 10.0 mi West 6.9 mph - 0.00 in   Scattered Clouds
4:51 AM -2.0 °F -13.9 °F -7.1 °F 79% 30.36 in 10.0 mi WNW 5.8 mph - 0.00 in   Clear
5:51 AM -2.9 °F -13.3 °F -8.0 °F 79% 30.38 in 10.0 mi WNW 4.6 mph - N/A   Clear
6:51 AM -4.0 °F -12.4 °F -11.0 °F 72% 30.38 in 10.0 mi WNW 3.5 mph - N/A   Clear
7:51 AM -7.1 °F - -11.0 °F 83% 30.40 in 10.0 mi Calm Calm - N/A   Clear
8:51 AM -2.0 °F -10.1 °F -7.1 °F 79% 30.39 in 10.0 mi WSW 3.5 mph - N/A   Clear
9:51 AM 1.9 °F -9.2 °F -7.1 °F 66% 30.41 in 10.0 mi West 5.8 mph - N/A   Clear
10:51 AM 5.0 °F -5.6 °F -9.0 °F 52% 30.43 in 10.0 mi West 5.8 mph - N/A   Clear
11:51 AM 7.0 °F -4.5 °F -9.0 °F 48% 30.42 in 10.0 mi WSW 6.9 mph - N/A   Clear
12:51 PM 10.0 °F -1.9 °F -9.0 °F 42% 30.39 in 10.0 mi WSW 8.1 mph - N/A   Clear
1:51 PM 12.9 °F 1.6 °F -9.0 °F 37% 30.38 in 10.0 mi NW 8.1 mph - 0.00 in   Clear
2:51 PM 15.1 °F 5.2 °F -9.0 °F 34% 30.35 in 10.0 mi WNW 6.9 mph - 0.00 in   Clear
3:51 PM 15.1 °F 4.2 °F -9.0 °F 34% 30.37 in 10.0 mi West 8.1 mph - N/A   Clear
4:51 PM 15.1 °F 5.2 °F -9.0 °F 34% 30.39 in 10.0 mi WNW 6.9 mph - N/A   Clear
5:51 PM 12.9 °F 5.2 °F -8.0 °F 39% 30.40 in 10.0 mi West 4.6 mph - N/A   Clear
6:51 PM 10.9 °F 1.4 °F -6.0 °F 47% 30.43 in 10.0 mi West 5.8 mph - N/A   Clear
7:51 PM 9.0 °F - -6.0 °F 51% 30.45 in 10.0 mi Calm Calm - N/A   Clear
8:51 PM 6.1 °F - -6.0 °F 58% 30.45 in 10.0 mi Calm Calm - N/A   Clear
9:51 PM 5.0 °F - -7.1 °F 58% 30.42 in 10.0 mi Calm Calm - N/A   Clear
10:51 PM 3.0 °F -4.4 °F -7.1 °F 63% 30.43 in 10.0 mi South 3.5 mph - N/A   Clear
11:51 PM 1.9 °F - -7.1 °F 66% 30.43 in 10.0 mi Calm Calm - N/A   Clear